Weather History for KBKF - August, 2013

Change the Weather History Date:

Friday, August 23, 2013

  Actual Average Record
Temperature  
Mean Temperature 74 °F -  
Max Temperature 87 °F 81 °F 95 °F (2011)
Min Temperature 60 °F 56 °F 45 °F (2015)
Cooling Degree Days 8    
Growing Degree Days 24 (Base 50)    
Moisture  
Dew Point 52 °F    
Average Humidity 56    
Maximum Humidity 82    
Minimum Humidity 25    
Precipitation  
Precipitation 0.00 in - - ()
Sea Level Pressure  
Sea Level Pressure 29.93 in    
Wind  
Wind Speed 13 mph (SW)    
Max Wind Speed 22 mph    
Max Gust Speed 28 mph    
Visibility 8 miles    
Events Rain , Thunderstorm    
Averages and records for this station are not official NWS values.
T = Trace of Precipitation, MM = Missing Value Source: NWS Daily Summary

Daily Weather History Graph

Daily Weather History Graph

Search for Another Location

Airport or City:

Trip Planner

Search our weather history database for the weather conditions in past years. The results will help you decide how hot, cold, wet, or windy it might be!

Date:

Astronomy

Aug. 23, 2013 Rise Set
Actual Time 6:18 AM MDT 7:43 PM MDT
Civil Twilight 5:50 AM MDT 8:11 PM MDT
Nautical Twilight 5:16 AM MDT 8:45 PM MDT
Astronomical Twilight 4:41 AM MDT 9:20 PM MDT
Moon 9:04 PM MDT (8/23) 9:16 AM MDT (8/23)
Length of Visible Light 14h 20m
Length of Day
13h 24m
Waning Gibbous, 91% of the Moon is Illuminated
Aug 23
Waning Gibbous
Aug 28
Last Quarter
Sep 5
New
Sep 12
First Quarter
Sep 19
Full

Hourly Weather History & Observations

Time (MDT) Temp. Heat Index Dew Point Humidity Pressure Visibility Wind Dir Wind Speed Gust Speed Precip Events Conditions
12:48 AM 62.6 °F - 53.6 °F 72% 30.28 in 7.0 mi SSW 21.9 mph 27.6 mph N/A Rain Light Rain
12:55 AM 60.8 °F - 55.4 °F 82% 30.06 in 7.0 mi SSW 16.1 mph 25.3 mph N/A Rain Light Rain
1:55 AM 60.8 °F - 55.4 °F 82% 30.03 in 7.0 mi SW 17.3 mph 23.0 mph N/A Rain Light Rain
2:14 AM 60.8 °F - 55.4 °F 82% 30.24 in 7.0 mi SW 15.0 mph - N/A   Mostly Cloudy
2:55 AM 60.8 °F - 53.6 °F 77% 29.98 in 7.0 mi SSW 18.4 mph - N/A   Scattered Clouds
3:55 AM 62.6 °F - 53.6 °F 72% 29.93 in 7.0 mi SSW 11.5 mph - N/A   Mostly Cloudy
4:55 AM 62.6 °F - 51.8 °F 68% 29.90 in 7.0 mi South 8.1 mph - N/A   Mostly Cloudy
5:55 AM 62.6 °F - 51.8 °F 68% 29.89 in 7.0 mi SSW 12.7 mph - N/A   Mostly Cloudy
6:55 AM 64.4 °F - 51.8 °F 64% 29.92 in 10.0 mi SSW 13.8 mph - N/A   Mostly Cloudy
7:55 AM 66.2 °F - 51.8 °F 60% 29.94 in 70.0 mi SSW 15.0 mph - N/A   Mostly Cloudy
8:55 AM 71.6 °F - 53.6 °F 53% 29.94 in 70.0 mi WSW 10.4 mph - N/A   Mostly Cloudy
9:55 AM 71.6 °F - 55.4 °F 57% 29.95 in 70.0 mi WNW 5.8 mph - N/A   Mostly Cloudy
10:55 AM 75.2 °F - 53.6 °F 47% 29.95 in 70.0 mi SW 3.5 mph - N/A   Mostly Cloudy
11:55 AM 78.8 °F - 51.8 °F 39% 29.93 in 70.0 mi West 2.3 mph - N/A   Mostly Cloudy
12:55 PM 82.4 °F - 51.8 °F 35% 29.91 in 70.0 mi East 3.5 mph - N/A   Mostly Cloudy
1:55 PM 84.2 °F - 51.8 °F 33% 29.88 in 70.0 mi North 3.5 mph - N/A   Mostly Cloudy
2:55 PM 87.8 °F - 50.0 °F 27% 29.84 in 70.0 mi North 3.5 mph - N/A   Scattered Clouds
3:55 PM 86.0 °F - 46.4 °F 25% 29.82 in 70.0 mi ESE 2.3 mph - N/A   Mostly Cloudy
4:55 PM 84.2 °F 82.8 °F 53.6 °F 35% 29.81 in 70.0 mi South 6.9 mph - N/A   Mostly Cloudy
5:55 PM 80.6 °F 80.3 °F 53.6 °F 39% 29.82 in 70.0 mi West 8.1 mph - N/A Thunderstorm Mostly Cloudy
6:55 PM 75.2 °F - 48.2 °F 38% 29.85 in 70.0 mi West 16.1 mph - N/A   Mostly Cloudy
7:55 PM 73.4 °F - 51.8 °F 47% 29.86 in 70.0 mi West 4.6 mph - N/A   Mostly Cloudy
8:55 PM 69.8 °F - 51.8 °F 53% 29.86 in 25.0 mi South 6.9 mph - N/A   Mostly Cloudy
9:55 PM 66.2 °F - 51.8 °F 60% 29.89 in 25.0 mi SW 6.9 mph - N/A   Scattered Clouds
10:55 PM 64.4 °F - 51.8 °F 64% 29.89 in 10.0 mi South 5.8 mph - N/A   Scattered Clouds
11:55 PM 64.4 °F - 51.8 °F 64% 29.88 in 10.0 mi SSW 3.5 mph - N/A   Scattered Clouds